Regional Weather Roundup
Issued by NWS Upton, NY

Current Version | Previous Version | Graphics & Text | Print | Product List | Glossary Off
Versions: 1 2 3 4 5 6 7 8 9 10 11 12 13 14 15 16 17 18 19 20 21 22 23 24 25 26 27 28 29 30 31 32 33 34 35 36 37 38 39 40 41 42 43 44 45 46 47 48 49 50

000
ASUS41 KOKX 261805
RWROKX

REGIONAL WEATHER ROUNDUP
NATIONAL WEATHER SERVICE NEW YORK NY
100 PM EST MON JAN 26 2015

NOTE: "FAIR" INDICATES FEW OR NO CLOUDS BELOW 12,000 FEET WITH NO
SIGNIFICANT WEATHER AND/OR OBSTRUCTIONS TO VISIBILITY.

NYZ071-072-176-178-NJZ106-104-261900-
NEW YORK CITY METRO AREA


CITY           SKY/WX    TMP DP  RH WIND       PRES   REMARKS
CENTRAL PARK   LGT SNOW  23  15  71 NE12G24   29.90F WCI  12
LAGUARDIA APRT LGT SNOW  23  18  81 NE18G25   29.90F WCI   9
KENNEDY INTL   LGT SNOW  25  18  74 NE18G29   29.89F VSB 1   WCI  11
NEWARK/LIBERTY LGT SNOW  22  18  85 NE18G24   29.90F FOG     WCI   7
BRNX BOT. GARD   N/A    N/A N/A N/A NE6       29.92F
TETERBORO      FLURRIES  23  15  71 N10       29.90F WCI  12
$$

NYZ177-179-078>081-261900-
LONG ISLAND NEW YORK

CITY           SKY/WX    TMP DP  RH WIND       PRES   REMARKS
FARMINGDALE    LGT SNOW  24  19  81 NE16G24   29.88F VSB 3/4 WCI  11
ISLIP          LGT SNOW  24  19  81 NE18      29.88F VSB 3/4 WCI  10
SHIRLEY        LGT SNOW  25  20  81 NE7G18    29.91F VSB 3/4 WCI  17
WESTHAMPTON    LGT SNOW  27  21  78 NE17G28   29.93F VSB 3/4 WCI  14
MONTAUK POINT    N/A     28  24  85 NE15G24   29.95F WCI  16
$$

NYZ052-065-067-261900-
HUDSON VALLEY

CITY           SKY/WX    TMP DP  RH WIND       PRES   REMARKS
WHITE PLAINS   LGT SNOW  21  14  74 NE10G22   29.88F FOG     WCI  10
NEWBURGH       LGT SNOW  18  12  79 NE14      29.96F FOG     WCI   4
MONTGOMERY     LGT SNOW  17  12  80 N13       29.94F WCI   4
POUGHKEEPSIE   LGT SNOW  20  11  68 N8        29.97F WCI  10
ALBANY         CLOUDY    16  -1  47 N7        30.06F WCI   6
$$

NJZ001-105-106-008-010-013-015-019>022-104-261900-
NEW JERSEY

CITY           SKY/WX    TMP DP  RH WIND       PRES   REMARKS
NEWARK/LIBERTY LGT SNOW  22  18  85 NE18G24   29.90F FOG     WCI   7
TETERBORO      FLURRIES  23  15  71 N10       29.90F WCI  12
CALDWELL       MIX PCPN  21  14  74 NE12G20   29.90F WCI   9
MORRISTOWN     LGT SNOW  23  16  74 NE12G24   29.90F WCI  12
SOMERVILLE     FLURRIES  24  16  71 NE12      29.87F WCI  13
SUSSEX         LGT SNOW  16   9  74 NE13G21   29.90F WCI   2
ANDOVER          N/A     16  11  80 NE8G18    29.89F WCI   5
TRENTON        LGT SNOW  26  20  77 NE13G24   29.84F WCI  15
MILLVILLE      CLOUDY    36  33  89 NE18G25   29.75S WCI  26
ATLANTIC CITY  CLOUDY    37  34  89 NE24G33   29.74F WCI  26
WRIGHTSTOWN    LGT SNOW  28  26  90 NE18      29.80F FOG     WCI  15
TOMS RIVER     CLOUDY    28  27  93 NE20      29.83S VSB 3/4 WCI  15
BELMAR         CLOUDY    28  19  69 NE16G23   29.84R WCI  17
$$

PAZ047>061-062-071-261900-
EASTERN PENNSYLVANIA

CITY           SKY/WX    TMP DP  RH WIND       PRES   REMARKS
PHILADELPHIA   LGT SNOW  30  25  81 NE20G25   29.82F WCI  17
ALLENTOWN      LGT SNOW  20  13  74 NE16      29.86F WCI   6
SCRANTON       CLOUDY    23  13  65 NE7       29.82F HAZE    WCI  15
$$

CTZ002-004>006-009-010-012-RIZ004-006-007-MAZ004-011-015-261900-
SOUTHERN NEW ENGLAND
 IN CT

CITY           SKY/WX    TMP DP  RH WIND       PRES   REMARKS
BRADLEY INTL   LGT SNOW  19   4  51 N15       30.01F WCI   5
HARTFORD       LGT SNOW  17   8  67 N8        30.03F WCI   7
DANBURY        LGT SNOW  18  10  71 NE12      29.94F WCI   5
WTRBRY/OXFORD  LGT SNOW  16   5  62 NE12G18   29.92F VSB 1   WCI   3
BRIDGEPORT     CLOUDY    21  15  78 NE17G26   29.94F WCI   7
MERIDEN        LGT SNOW  17  10  74 N13G18    30.00F WCI   4
NEW HAVEN      CLOUDY    20  15  81 N15       29.95F HAZE    WCI   6
CHESTER        FLURRIES  23  19  86 NE12G18   29.95F WCI  12
GROTON         CLOUDY    25  19  78 NE20G25   29.97F WCI  11
WILLIMANTIC    SNOW      22  15  75 NE12      30.01F VSB 1/2 WCI  10

 IN RI

CITY           SKY/WX    TMP DP  RH WIND       PRES   REMARKS
PROVIDENCE     LGT SNOW  22  17  81 N16       30.03F FOG     WCI   8
BLOCK ISLAND   CLOUDY    27  21  80 NE18G26   29.94F WCI  13
WESTERLY       CLOUDY    24  18  77 NE12G20   29.98F WCI  13

 IN MA

CITY           SKY/WX    TMP DP  RH WIND       PRES   REMARKS
BOSTON         LGT SNOW  25  19  78 NE18      30.07F WCI  11
WORCESTER      CLOUDY    15   7  70 NE9G18    29.97F WCI   3
WESTFIELD      CLOUDY    19   1  45 N12       30.02F WCI   7
PROVINCETOWN   CLOUDY    30  19  64 E16G22    30.06F WCI  19
NANTUCKET      LGT SNOW  33  28  81 NE17G25   29.98F WCI  22
$$

ANZ330-335-338-340-345-350-353-355-261900-
COASTAL MARINE OBSERVATIONS


STATION/POSITION TIME  SKY/WX   TEMP    WIND        PRES    VSBY  WAVE
                                AIR SEA DIR/SP/G                  HT/PER
                 (UTC)          (F)     (DEG/KT/KT) (MB)    (MI)  (FT/S)
NY HARB ENTRANCE 1800            29 43   40/ 27/ 31 1009.6          8/ 7
4S FIRE IS       1800               38                N/A           6/ 6
20S FIRE ISLAND  1700               41              1011.2          9/ 6
23SW MTP         1800                                 N/A           8/ 6
HUDSON CANYON    NOT AVBL
EXECUTION ROCKS  1800            24 35   40/ 21/ 27   N/A
WESTERN LI SOUND 1700            22      50/ 19/ 25   N/A           4/ 5
CENTRAL LI SOUND 1700            24 36   60/ 19/ 25   N/A           3/ 4
EASTERN LI SOUND NOT AVBL
ROBBINS REEF     1800            23      40/ 20/ 25 1010.9
$$


>>>>>>>>>>>>>>>>>>>>>>>>>>>> KEY <<<<<<<<<<<<<<<<<<<<<<<<<<<
>                                                          <
>     SKY/WX - SKY CONDITION/PRESENT WEATHER               <
>     TMP    - TEMPERATURE IN FAHRENHEIT                   <
>     DP     - DEWPOINT IN FAHRENHEIT                      <
>     RH     - RELATIVE HUMIDITY IN PERCENT                <
>     WIND   - DIRECTION AND SPEED IN MPH                  <
>     PRES   - MEAN SEA LEVEL PRESSURE IN INCHES OF HG     <
>     WCI    - WIND CHILL INDEX                            <
>     VSB    - VISIBILITY IN MILES                         <
>     HX     - HEAT INDEX                                  <
>     TC     - TEMPERATURE IN CELSIUS                      <
>     VRB    - VARIABLE WIND DIRECTION                     <
>                                                          <
>>>>>>>>>>>>>>>>>>>>>>>>>>>> KEY <<<<<<<<<<<<<<<<<<<<<<<<<<<





USA.gov is the U.S. government's official web portal to all federal, state and local government web resources and services.